Other Public Products
Issued by NWS Grand Forks, ND

Home | Current Version | Previous Version | Text Only | Print | Product List | Glossary On
Versions: 1 2 3 4 5 6 7 8 9 10 11 12 13 14 15 16 17 18 19 20 21 22 23 24 25 26 27 28 29 30 31 32 33 34 35 36 37 38 39 40 41 42 43 44 45 46 47 48 49 50
000
FPUS83 KFGF 300731
OPUFGF
PRAIRIE TO PINES WEATHER ROUNDUP
NATIONAL WEATHER SERVICE EASTERN NORTH DAKOTA/GRAND FORKS ND
200 AM CDT TUE MAY 30 2017

 **SATELLITE DATA USED TO AUGMENT SKY COVER AT AUTOMATED STATIONS**
 *****  WEATHER ACROSS EASTERN NORTH DAKOTA  *****

CITY           SKY/WX    TMP DP  RH WIND       PRES   REMARKS
GRAND FORKS    CLOUDY    48  44  86 NW12      29.91S
GRAND FORKS AF CLOUDY    46  43  87 N7        29.92S
GRAND CITY NWS NOT AVBL
BUXTON           N/A     47  45  93 NW15        N/A
DEVILS LAKE    CLOUDY    47  41  80 N15G21    29.97S
FARGO          CLOUDY    49  43  80 N10       29.92S
WAHPETON ARPT  CLOUDY    50  43  76 N12       29.93R
$$

 *****  WEATHER ACROSS CENTRAL AND WESTERN NORTH DAKOTA  *****

CITY           SKY/WX    TMP DP  RH WIND       PRES   REMARKS
JAMESTOWN      FAIR      45  40  82 NW10      29.96S
BISMARCK       FAIR      42  36  79 CALM      30.04S
MINOT          FAIR      45  38  76 NW10      30.03R
MINOT AFB      FAIR      40  37  89 NW8       30.02R
GARRISON         N/A     38  34  85 NW5       30.03R
WILLISTON      FAIR      42  30  62 CALM      30.07R
DICKINSON      FAIR      38  28  67 W8        30.04S
HETTINGER      FAIR      36  29  75 NW5       30.08F
$$

 *****  OTHER OBSERVATIONS NORTHEAST NORTH DAKOTA  *****

CITY           SKY/WX    TMP DP  RH WIND       PRES   REMARKS
WALHALLA       NOT AVBL
LANGDON        CLOUDY    45  45 100 NW16      29.94S
CAVALIER       CLOUDY    45  45 100 NW14      29.91S FOG
GRAFTON        CLOUDY    46  45  93 NW15      29.93S
CANDO          NOT AVBL
FORT TOTTEN      N/A     47  42  83 NW7       29.95S
ROLLA          CLOUDY    45  43  93 NW16      29.97S
RUGBY          NOT AVBL
 ***** THE ABOVE OBSERVATIONS ARE NON NWS ARE NOT QUALITY
        CONTROLLED AND MAY MIS-REPORT RAIN FOR SNOW...
$$

 *****  OTHER OBSERVATIONS SOUTHEAST NORTH DAKOTA *****

CITY           SKY/WX    TMP DP  RH WIND       PRES   REMARKS
COOPERSTOWN    CLOUDY    48  41  76 NW13      29.95S
VALLEY CITY    CLOUDY    48  45  87 N9        29.96S
OAKES          NOT AVBL
GWINNER        MOSUNNY   50  43  76 MISG      29.95S
SHEYENNE NWR     N/A     53  45  74 NW7       29.95S
BUFFALO          N/A     49  41  74 CALM        N/A
WYNDMERE         N/A     54  45  71 NW12        N/A
 ***** THE ABOVE OBSERVATIONS ARE NON NWS ARE NOT QUALITY
       CONTROLLED AND MAY MIS-REPORT RAIN FOR SNOW...
$$

  *****  WEATHER ACROSS NORTHERN MINNESOTA  *****

CITY           SKY/WX    TMP DP  RH WIND       PRES   REMARKS
FLAG ISLAND    CLOUDY    45  43  93 NW17      29.79F
WARROAD        CLOUDY    43  39  87 W9        29.83F
ROSEAU         DRIZZLE   43  37  81 NW8       29.84F
HALLOCK        CLOUDY    45  43  93 NW13      29.90S
THF RVR FALLS  LGT RAIN  43  42  97 NW13      29.88F
HALSTAD          N/A     47  43  84 N13         N/A
FOSSTON        CLOUDY    43  39  87 NW7       29.88R
BAUDETTE       CLOUDY    43  43 100 W12       29.80S FOG
WASKISH        DRIZZLE   45  41  87 NW13G21   29.81F
CROOKSTON      CLOUDY    45  45 100 NW16      29.90F
$$
  *****  WEATHER ACROSS CENTRAL AND WEST MINNESOTA  *****

CITY           SKY/WX    TMP DP  RH WIND       PRES   REMARKS
BEMIDJI        CLOUDY    42  40  93 NW13G20   29.84S
PARK RAPIDS    CLOUDY    46  39  76 NW17      29.85S
WADENA         CLOUDY    45  43  93 NW10G16   29.87S FOG
DETROIT LAKES  DRIZZLE   45  43  93 NW12      29.90S
MOORHEAD       CLOUDY    48  43  81 N15       29.93S
FERGUS FALLS   CLOUDY    46  46 100 N8        29.91S
ELBOW LAKE     CLOUDY    50  45  84 NW7       29.91F
MORRIS MN      CLOUDY    52  46  82 NW7       29.91S
STAPLES        CLOUDY    46  39  76 NW10      29.86S
WHEATON        CLOUDY    52  45  76 W7        29.94F
$$
  *****  WEATHER ELSEWHERE ACROSS MINNESOTA  *****

CITY           SKY/WX    TMP DP  RH WIND       PRES   REMARKS
DULUTH         CLOUDY    48  45  89 W10       29.76S
INTRNTL FALLS  CLOUDY    45  41  86 W9        29.76F
ELY            CLOUDY    45  39  81 NW6       29.74R
CLOQUET        CLOUDY    46  41  81 W12       29.78S
BRAINERD       CLOUDY    49  41  74 W14       29.84S
HIBBING        CLOUDY    45  39  79 W9        29.77S
ALEXANDRIA     CLOUDY    50  44  80 NW13      29.90F
SAINT CLOUD    CLOUDY    52  48  86 W14       29.86S
MINNEAPOLIS    MOCLDY    54  44  69 W8        29.87S
$$

  *****  WEATHER ACROSS SOUTH DAKOTA  *****

CITY           SKY/WX    TMP DP  RH WIND       PRES   REMARKS
SIOUX FALLS    CLOUDY    50  45  83 W3        29.99F
BROOKINGS      CLOUDY    50  45  83 W6        29.98S
WATERTOWN      FAIR      51  42  71 W8        29.96S
HURON          MOCLDY    49  40  71 W6        30.00R
SISSETON         N/A     54  42  64 NW15      29.93S
ABERDEEN       FAIR      44  37  76 CALM      29.98F
MITCHELL       CLOUDY    53  42  66 W7        30.02R
PIERRE         FAIR      47  36  65 W6        30.04S
MOBRIDGE       FAIR      46  36  68 N8        30.00S
RAPID CITY     FAIR      41  29  62 W5        30.12S
$$

  *****  SOME WEATHER IN NEARBY STATES *****

CITY           SKY/WX    TMP DP  RH WIND       PRES   REMARKS
GLASGOW MT     FAIR      46  26  45 NE12      30.10F
GREAT FALLS MT FAIR      59  43  55 SE7       30.11S
CHEYENNE WY    FAIR      45  38  76 NW5       30.25F
SCOTTSBLUFF NE FAIR      44  37  76 NW3       30.17F
OMAHA NE       FAIR      54  45  71 SE5       30.04S
DES MOINES IA  FAIR      56  45  66 W5        30.01S
DAVENPORT IA   FAIR      55  46  71 W7        29.96S
CHICAGO IL     FAIR      58  47  66 SW3       29.90S
EAU CLAIRE WI  MOCLDY    52  47  83 W7        29.82F
LA CROSSE WI   FAIR      56  50  80 W10       29.87R
$$

  *****  SOME NATIONAL WEATHER *****

CITY           SKY/WX    TMP DP  RH WIND       PRES   REMARKS
LA GUARDIA NY  CLOUDY    56  51  84 SE8       30.12S
RALEIGH NC     CLOUDY    68  68 100 CALM      30.02S
ATLANTA GA     CLOUDY    69  66  90 NW5       30.09S
NEW ORLEANS LA CLOUDY    72  71  97 CALM      30.06F
OKLAHOMA CITY  FAIR      63  54  72 S6        30.08S
ALBUQUERQUE NM FAIR      59  44  57 N8        30.21S
SALT LAKE CITY FAIR      66  44  45 CALM      30.05S
LOS ANGELES CA CLOUDY    61  56  83 SE7       29.91F
BOISE ID       FAIR      69  43  38 SE8       29.96F
SEATTLE WA     FAIR      55  50  83 SW10      29.98R
$$

*** WEATHER ACROSS MANITOBA...SASKATCHEWAN AND ONTARIO ***
                ***ONTARIO***

CITY           SKY/WX    TMP DP  RH WIND       PRES   REMARKS
GERALDTON      MOCLDY    52  50  93 W8        29.51F
THUNDER BAY    LGT RAIN  52  48  87 W12       29.63S
SIOUX LOOKOUT  LGT RAIN  46  46 100 NW8       29.67S FOG
TORONTO        PTCLDY    59  54  82 SW2       29.86S
BIG TROUT LK   CLOUDY    39  37  93 NW7       29.58F
PICKLE LAKE    NOT AVBL
DRYDEN         CLOUDY    45  43  93 W10       29.71S FOG
KENORA         LGT RAIN  43  43 100 NW12G21   29.77S FOG
$$
                *** MANITOBA***

CITY           SKY/WX    TMP DP  RH WIND       PRES   REMARKS
BRANDON        CLOUDY    46  39  76 N16       29.99R
DAUPHIN        CLOUDY    46  39  76 NW8       30.01S
ISLAND LAKE    NOT AVBL
PILOT MOUND      N/A     43  41  93 NW13        N/A
THE PAS        PTCLDY    46  39  76 NW13      30.04R
THOMPSON       PTCLDY    41  37  87 NW8       29.93S
WINNIPEG       CLOUDY    45  41  87 N16       29.89S
LYNN LAKE      CLEAR     43  36  75 W9        30.02F
CHURCHILL      MOCLDY    36  34  93 N14       29.89S
GILLAM         LGT RAIN  39  37  93 N17G24    29.81S FOG
$$
                ***SASKATCHEWAN***

CITY           SKY/WX    TMP DP  RH WIND       PRES   REMARKS
ESTEVAN        CLEAR     39  36  87 N8        30.07R
KINDERSLEY     CLEAR     45  34  65 NE10      30.14F
LLOYDMINSTER   CLEAR     46  32  57 SE6       30.16S
PRINCE ALBERT  CLEAR     36  30  80 N3        30.16R
REGINA         CLEAR     46  36  66 N7        30.12R
YORKTON        MOCLDY    45  41  87 N9        30.07R


USA.gov is the U.S. government's official web portal to all federal, state and local government web resources and services.